Regional Weather Roundup
Issued by NWS

Home | Current Version | Previous Version | Graphics & Text | Print | Product List | Glossary On
Versions: 1 2 3 4 5 6 7 8 9 10 11 12 13 14 15 16 17 18 19 20 21 22 23 24 25 26 27 28 29 30 31 32 33 34 35 36 37 38 39 40 41 42 43 44 45 46 47 48 49 50
000
ASUS43 KLMK 260002
RWRKY
KENTUCKY REGIONAL WEATHER ROUNDUP
NATIONAL WEATHER SERVICE LOUISVILLE KY
800 PM EDT SAT APR 25 2015

NOTE "FAIR" INDICATES FEW OR NO CLOUDS BELOW 12,000 FEET
WITH NO SIGNIFICANT WEATHER AND/OR OBSTRUCTIONS TO VISIBILITY.

KYZ001>023-026-027-061>063-070>075-260100-
WESTERN AND SOUTH CENTRAL KENTUCKY

CITY           SKY/WX    TMP DP  RH WIND       PRES   REMARKS
PADUCAH        CLOUDY    68  58  70 NW13G32   29.49R THUNDER
HENDERSON      CLOUDY    63  57  82 N6        29.50R
OWENSBORO      LGT RAIN  61  59  93 NE6       29.51R FOG
HOPKINSVILLE   CLEAR     76  57  50 SW20G26   29.46S HAZE
BOWLING GREEN  CLOUDY    78  51  38 SW14      29.44F
GLASGOW        NOT AVBL
$$

KYZ024-025-028>034-038-045-046-053-260100-
NORTH CENTRAL KENTUCKY

CITY           SKY/WX    TMP DP  RH WIND       PRES   REMARKS
LOUISVILLE/SDF CLOUDY    53  49  86 E10       29.55R
LOUISVILLE/LOU TSTM      51  48  89 NE12G18   29.55S FOG
FORT KNOX      NOT AVBL
$$

KYZ035>037-039>044-047>052-055>060-089>105-260100-
NORTHEAST KENTUCKY

CITY           SKY/WX    TMP DP  RH WIND       PRES   REMARKS
LEXINGTON      LGT RAIN  48  46  93 NE17      29.55S
COVINGTON      CLOUDY    45  45 100 NE20G25   29.61F
FRANKFORT      LGT RAIN  49  45  86 NE14G20   29.55F
$$

KYZ054-064>069-076>088-106>120-260100-
SOUTHEAST KENTUCKY

CITY           SKY/WX    TMP DP  RH WIND       PRES   REMARKS
JACKSON        CLOUDY    52  50  93 VRB3      29.55F
LONDON         CLEAR     77  48  35 W9        29.48F
SOMERSET       NOT AVBL
MIDDLESBORO    CLEAR     70  62  75 S6        29.52F
MONTICELLO     CLEAR     76  56  49 SW12      29.49F
$$




USA.gov is the U.S. government's official web portal to all federal, state and local government web resources and services.